Regional Weather Roundup
Issued by NWS Wakefield, VA

Home | Current Version | Previous Version | Graphics & Text | Print | Product List | Glossary On
Versions: 1 2 3 4 5 6 7 8 9 10 11 12 13 14 15 16 17 18 19 20 21 22 23 24 25 26 27 28 29 30 31 32 33 34 35 36 37 38 39 40 41 42 43 44 45 46 47 48 49 50
000
ASUS41 KAKQ 161710
RWRAKQ

REGIONAL WEATHER ROUNDUP
NATIONAL WEATHER SERVICE WAKEFIELD VA
100 PM EDT TUE SEP 16 2014

Note: "fair" indicates few or no clouds below 12,000 feet with no
significant weather and/or obstructions to visibility. * = Denotes
station may not report precipitation (e.g., rain,snow,etc.),
thunder or fog.

VAZ042-051-052>054-056-161800-
NORTHERN VIRGINIA

CITY           SKY/WX    TMP DP  RH WIND       PRES   REMARKS
WASH NATIONAL  MOSUNNY   80  54  40 NW17G23   30.02F
DULLES         PTSUNNY   73  52  47 NW13G24   30.04S
FORT BELVOIR   SUNNY     75  55  49 NW13G18   30.02F
QUANTICO       MOSUNNY   77  55  46 N14G30    30.02F
FREDERICKSBRG* PTSUNNY   76  60  57 N8G17     30.00F
STAFFORD*      PTSUNNY   75  58  57 N7        30.06F
WARRENTON      SUNNY     78  62  58 NW14      30.02F
CULPEPER*      SUNNY     77  55  47 N10G21    30.03F
MANASSAS*      PTSUNNY   75  55  50 N9        30.03F
LEESBURG*      MOSUNNY   73  55  53 N10G17    30.04F
WINCHESTER     MOSUNNY   73  48  40 NW12G21   30.04F
FRONT ROYAL*   CLOUDY    70  52  52 W7        30.05S
LURAY*         MOSUNNY   73  54  49 NW12G17   30.05F
$$

VAZ048-049-060>072-079>083-161800-
CENTRAL AND SOUTH CENTRAL VIRGINIA...AND NORTH CENTRAL NORTH CAROLINA

CITY           SKY/WX    TMP DP  RH WIND       PRES   REMARKS
RICHMOND       PTSUNNY   81  58  45 N5        29.99F
CHESTERFIELD*  PTSUNNY   81  55  41 NW7       30.01F
PETERSBURG*    MOSUNNY   80  56  43 W3        30.01F
HANOVER        PTSUNNY   78  59  51 W8        30.01F
TAPPAHANNOCK*  PTSUNNY   79  55  43 N6        30.00F
CHARLOTTSVILLE PTSUNNY   76  57  51 N9        30.02F
ORANGE*        CLOUDY    73  59  60 N7        30.03S
LOUISA*        PTSUNNY   79  59  50 N5        30.00F
FARMVILLE*     PTSUNNY   81  57  44 NE3       29.99F
CREWE*         PTSUNNY   81  61  51 N3        30.02S
FORT PICKETT*  PTSUNNY   78  60  55 CALM      30.01F
LUNENBURG*     PTSUNNY   78  62  57 CALM      30.02F
SOUTH HILL*    SUNNY     81  63  54 CALM      30.06F
LAWRENCEVILLE* MOSUNNY   78  61  54 CALM      30.01F
ROANOKE RAPIDS MOSUNNY   77  63  61 CALM      30.01F
RALEIGH        MOSUNNY   82  61  48 CALM      30.02F
$$

VAZ088>098-161800-
SOUTHEAST VIRGINIA

CITY           SKY/WX    TMP DP  RH WIND       PRES   REMARKS
NORFOLK        SUNNY     78  57  48 N7        29.99F
VIRGINIA BEACH MOSUNNY   81  62  52 VRB6      29.99F
NORFOLK NAVAL  MOSUNNY   79  59  50 NE7       30.01F
WEST POINT*      N/A     81  57  43 CALM      30.01
NEWPORT NEWS   CLOUDY    81  62  52 N7        30.00F
LANGLEY AFB    PTSUNNY   77  62  59 NE5       29.99F
FORT EUSTIS    MOSUNNY   76  60  57 NW7       29.99F
WILLIAMSBURG*  MOSUNNY   82  68  61 CALM      30.00F
HR EXEC AP*    MOSUNNY   79  63  57 N5        30.01F
FRANKLIN*        N/A     81  61  50 NW5       30.00F
WAKEFIELD      PTSUNNY   79  61  53 CALM      30.00F
$$

VAZ020-022-025-037-045-161800-
WEST CENTRAL AND SOUTHWEST VIRGINIA

CITY           SKY/WX    TMP DP  RH WIND       PRES   REMARKS
STAUNTON*      PTSUNNY   75  53  45 N5        30.06F
HOT SPRINGS VA CLOUDY    57  46  67 W7        30.15F
LYNCHBURG      CLOUDY    74  59  59 CALM      30.05F
DANVILLE       MOSUNNY   79  61  53 CALM      30.03F
SOUTH BOSTON*  NOT AVBL
MARTINSVILLE   CLOUDY    78  62  58 SE3       30.07F
ROANOKE        CLOUDY    73  59  61 N7        30.07F
BLACKSBURG     CLOUDY    70  64  83 SW5       30.12F
DUBLIN*        CLOUDY    66  63  89 CALM      30.12S
MARION*        LGT RAIN  67  63  87 NW6       30.13F
HILLSVILLE*    PTSUNNY   69  62  77 NW13      30.11F
RICHLANDS*     CLOUDY    65  62  89 W7        30.13F
WISE*          CLOUDY    66  63  88 NW7       30.15S
ABINGDON*      CLOUDY    71  65  82 W9        30.10F
$$

MDZ021>025-VAZ099-100-161800-
SOUTHERN MARYLAND AND THE DELMARVA PENINSULA

CITY           SKY/WX    TMP DP  RH WIND       PRES   REMARKS
PATUXENT RIVER PTSUNNY   75  56  51 N15       29.99F
BAY BRIDGE APT   N/A     72  54  53 NW7       30.00F
LEONARDTOWN    CLOUDY    73  55  53 W6G16     30.01F
DOVER          PTSUNNY   76  56  50 NW13G20   29.96F
GEORGETOWN     MOSUNNY   76  55  48 VRB5      29.98F
EASTON         MOSUNNY   77  57  50 N10G18    30.03F
CAMBRIDGE      SUNNY     77  55  47 NW13G18   29.99S
SALISBURY        N/A     79  56  45 NW8       29.98F
OCEAN CITY     MOSUNNY   79  57  46 NW10      29.97F
WALLOPS ISLAND MOSUNNY   79  59  50 N13G22    29.97F
ACCOMACK*      MOSUNNY   77  59  53 NW9       29.99S
$$

NCZ012>017-030>032-161800-
EASTERN NORTH CAROLINA

CITY           SKY/WX    TMP DP  RH WIND       PRES   REMARKS
ELIZABETH CITY MOSUNNY   80  65  59 CALM      30.00F
AHOSKIE*       SUNNY     78  62  57 N6        30.01F
EDENTON*       MOSUNNY   80  67  63 NW3       30.00F
CURRITUCK*     MOSUNNY   80  62  53 CALM      30.00F
KILL DEVIL HLS MOSUNNY   79  68  68 W8        29.99F
MANTEO         MOSUNNY   78  67  69 W6        30.00F
CAPE HATTERAS  MOSUNNY   78  69  73 VRB6      30.01F
TARBORO*       SUNNY     80  65  59 CALM      30.01F
GOLDSBORO      MOSUNNY   82  72  71 CALM      30.00F
WASHINGTON     MOSUNNY   79  67  66 CALM      30.01F
GREENVILLE     MOSUNNY   81  64  57 N6        30.03S
NEW BERN       MOSUNNY   83  69  62 NW5       30.02F
WILMINGTON     PTSUNNY   82  72  71 NE6       30.00F
$$

VAZ048-161800-
ELSEWHERE

CITY           SKY/WX    TMP DP  RH WIND       PRES   REMARKS
HARRISBURG PA  MOSUNNY   72  53  51 N12       30.02F
BALTIMORE      PTSUNNY   73  53  49 W9        30.00F
ANNAPOLIS      PTSUNNY   72  56  57 NW10      30.00F
ANDREWS AFB    PTSUNNY   72  55  54 N13       30.01F
WILMINGTON DE  PTSUNNY   74  57  55 N10       30.00F
PHILADELPHIA   MOSUNNY   73  54  51 NW10G20   29.99F
WILDWOOD NJ*   SUNNY     72  61  68 NW9       29.98F
ATLANTIC CITY  MOSUNNY   74  59  59 N13       29.96F
HENDERSON NC   MOSUNNY   79  60  52 W3        30.02F
GREENSBORO     PTSUNNY   79  63  57 VRB7      30.03F
ROCKY MOUNT    SUNNY     82  63  52 CALM      30.01F
FAYETTEVILLE   SUNNY     81  66  60 CALM      30.01F
CHARLOTTE      MOSUNNY   83  65  54 W5        30.04F
$$

VAZ100-161800-
MARINE

STATION/POSITION TIME  TEMP    WIND        PRES    WAVE   SWELL
                       AIR SEA DIR/SP/G            HT/PER HT/PER
                 (UTC) (F)     (DEG/KT/KT) (MB)    (FT/S) (FT/S)
44066 TX TWR #4  1700   68 74  220/  2/  4 1014.9F   2/ 7   2/ 7
CAPE MAY NJ      1600   69     320/ 12/ 15 1015.0F
LEWES DE         1600                      1015.0F
15NM E FENWICK I 1700   70 72              1014.5F   2/12
OCEAN-CITY-INLET 1600   73     360/ 12/ 14 1014.7F
WACHAPREAGUE VA  1600                      1015.4F
THOMAS POINT MD  1700   71 75  340/  7/  8 1016.8F
GOOSES REEF MD   1700   73     340/ 12/ 16 1016.4S
COVE POINT MD    1600                      1015.9F
BISHOPS HEAD MD  1600   72     290/ 14/ 16 1015.8F
PINEY POINT MD   1600          330/ 11/ 12   N/A
POTOMAC MD       1700   74     300/ 12/ 14 1015.2S
CAMBRIDGE MD     1600   72     320/ 10/ 15 1015.7R
LEWISETTA VA     1600                      1015.6F
RAPPAHANNOCK LGT 1600                      1016.6F
STINGRAY PT      1700   73     360/  2/  4   N/A
YORK RVR RNG VA  1600                      1015.6F
YORKTOWN VA      1600   73     300/  5/  6 1016.0F
JAMESTOWN VA     1700   73     290/  4/  4   N/A
DOMINION TERM VA 1600                      1016.3F
KIPTOPEKE VA     1600          310/  7/  8   N/A
CHES BAY BRIDGE  1600   73     300/  3/  5 1015.9F
CAPE HENRY VA    1600                      1015.0F
CHESAPEAKE LGHT  1600   74     290/  9/ 10 1016.8F
WILLOUBY STN VA  1600                      1014.9F
S CRANEY ISL VA  1600          350/  3/  5 1016.2S
CAPE HENRY BUOY  1700      76                N/A     2/13   2/13
1ST LANDING BUOY 1700   72     320/  6/  8 1015.6F
CAPE CHARLES BUO 1700      75                N/A     2/12   2/12
OFFSHORE WE BUOY 1700      75                N/A     2/13   2/13
64NM E OF VA BCH 1700   74 79  280/ 12/ 14 1014.9F   2/12   2/12
DUCK PIER NC     1600   75     250/  7/ 11 1015.7F
44100 DUCK FRF   1700      75                N/A     2/13   2/13
44056 DUCK FRF   1700                        N/A     2/14   2/14
OREGON INLET NC  1600   76     230/  4/  5 1016.5F
HATTERAS NC      1600   77     290/  5/  6 1017.2F
DIAMOND SHLS NC  1700   76     300/  6/  8 1016.1F   2/ 7   2/ 7
CAPE LOOKOUT NC  1600   79      CALM  /  2 1016.9F
$$


USA.gov is the U.S. government's official web portal to all federal, state and local government web resources and services.